オダス彗星

198P/ODAS (2005)

English version
Home page
Updated on April 6, 2008

---------------------------------------------------------------------

・ プロフィール

符号 198P/2006 B7
再発見日 2006年1月30日
再発見光度 20.9等
再発見者 G. V. Williams (Minor Planet Center)

・ 軌道要素

Epoch 2005 Apr. 20.0 TT = JDT 2453480.5
T 2005 May 3.25821 TT                                   MPC
q   1.9808483            (2000.0)            P               Q
n   0.14529402     Peri.   69.05285     +0.37818445     -0.92573012
a   3.5834738      Node   358.72553     +0.84035950     +0.34354541
e   0.4472268      Incl.    1.34843     +0.38829426     +0.15811484
P   6.78

The resulting nongravitational parameters are A1 = -2.79 +/- 0.27, A2 = 
+1.1966 +/- 0.2612, A3 = -2.2588 +/- 0.0268.

・ 星図

・ 光度変化

        m1 = 14.5 + 5 logΔ + 10 log r(t - 200)

---------------------------------------------------------------------

軌道要素はM.P.E.C. 2008-G10に掲載されたものです。
星図は StellaNavigator Ver.2.0 for Windows (アストロアーツ 編著 / アスキー出版局刊) で作成したものです。
光度グラフはComet for Windowsで作成したものです。

---------------------------------------------------------------------

Copyright(C) Seiichi Yoshida (comet@aerith.net). All rights reserved.